ONEWEB-0262 (48980 NORAD) Tracking and Keplerian Element Data

This shows tracking and keplerian element data for the satellite.

Feedback or suggestion? Click here.




ElementValue
Catalog48980
NameONEWEB-0262
Epoch Orbit337
Epoch Day287.91667824
Epoch Year2021
RAAN208.1231
Inclination87.9475
Eccentricity0.000123
Argument of Perigee106.1895
Mean Anonmoly169.7403
Mean Motion13.24765738
Decay Rate-0.00044708
L11 48980U 21060P 21287.91667824 -.00044708 00000-0 -10416+0 0 9997
L22 48980 87.9475 208.1231 0001230 106.1895 169.7403 13.24765738 3373

Live tracking and technical data element details for ONEWEB-0262 (NORAD 48980). ONEWEB-0262 can be tracked NOW for your location showing map with azimuth and elevation plus other details from your city location.

Track the satellite on the map from your city or location and see movement details for azimuth, elevation, latitude, longitude, range, height, and movement on the map or in text.







IsCatalogInMostPopularTable: catalog: 48980, numindb: 26
Update: records affected: 1



GetName: 48980 ONEWEB-0262

Hit Count: updated at: Sun, 17 Oct 2021 09:31:07 GMT